STARLINK-35205

Satellite information

Favourite Embed

Satellite Type and Status

PAYLOADIN ORBIT

Key statistics

Satellite STARLINK-35205 at a glance.

Uptime

29

Days in orbit

Revolutions

≈ 15.3

Per day

Orbit

LEO

Low Earth Orbit

Inclination

53.2

Latest

Satellite identification and parameters

Extended collection of information and parameters for STARLINK-35205.

Object identification

Identified? True

Debris? False

Object name: STARLINK-35205

International designator: 2025-212D

Object number (NORAD): 65679

Object ID (CCSDS): 65679

Country: UNITED STATES OF AMERICA (US)

Current information (Y/N): Y

Orbital parameters

Period: 93.814 minutes

Inclination: 53.1594 deg

SMA: 6839.177 km

Apoapsis: 462.075 km

Periapsis: 460.009 km

RAAN: 279.5992 deg

Eccentricy: 0.00015107

Argument of periapsis: 40.5699 deg

Mean anomaly: 319.5416 deg

Mean motion: 15.34959666 rev/day

Mean motion (dot): -0.00370549 rev/day2

B* drag term: -0.011299659 1/REarth

Two-line elements (TLE)

Creation date: Oct. 20, 2025, 2:10 a.m.

Reference frame: TEME

Reference center: EARTH

Epoch: Oct. 19, 2025, 11:01 p.m. UTC

TLE line 0: 0 STARLINK-35205

TLE line 1: 1 65679U 25212D 25292.95946076 -.00370549 00000-0 -11300-1 0 9997

TLE line 2: 2 65679 53.1594 279.5992 0001511 40.5699 319.5416 15.34959666 5644

Live tracking on map

Real-time ground track for satellite STARLINK-35205.

In-orbit conjunctions

There are no conjunctions computed for STARLINK-35205, at the moment. Check back to stay up to date, as we update our databases every day.

Go to all conjunctions

Associated space launch

A batch of 28 satellites for the Starlink mega-constellation - SpaceX's project for space-based Internet communication system.

STARLINK-35205 was lifted into orbit during the mission ‘Falcon 9 Block 5 | Starlink Group 10-27’, on board a Falcon 9 space rocket.

The launch took place on Sept. 21, 2025, 10:53 a.m. from Space Launch Complex 40.

For more information about the launch, click the button.

Launch to space Falcon 9 Block 5 | Starlink Group 10-27
Falcon 9 Block 5 | Starlink Group 10-27

Agency: SpaceX

Status: Launch Successful

Launch date: Sept. 21, 2025, 10:53 a.m. UTC

Rocket: Falcon 9

Launch pad: Space Launch Complex 40

Location: Cape Canaveral SFS, FL, USA

...

Latest news about this satellite

News about space launch
Live coverage: SpaceX to launch 28 Starlink satellites on Falcon 9 rocket from Cape Canaveral

The Starlink 10-27 mission will be the 280th orbital launch for SpaceX from Cape Canaveral Space Force Station. Liftoff from Space Launch Complex 40 is scheduled for 6:53 a.m. EDT (1053 UTC).

News about space launch
Launch Roundup: Starlink, NRO, and New Shepard missions scheduled

Another busy week of launches has arrived, with SpaceX dominating the launch manifest with four… The post Launch Roundup: Starlink, NRO, and New Shepard missions scheduled appeared first on NASASpaceFlight.com.


Newsletter sign-up

Weekly statistics, charts and insights to help you stay on top of the space industry.